Wetbulb
70.76 70.50 70.20 69.78 69.53 69.84 69.68 70.42 71.93 71.98 72.35 72.30 72.50 72.65 72.53 72.08 71.83 71.89 71.16 71.33 71.94 72.08
71.28 70.68 70.56 71.20 71.53 71.78 72.06 71.83 71.82 71.94 72.16 72.56 72.58 72.31 72.53 71.59 71.98 72.24 72.02 71.88 72.48 72.20
68.76 69.66 70.28 71.04 70.91 72.19 71.83 72.63 72.63 72.41 72.06 72.19 72.46 72.51 72.42 71.81 72.18 71.99 72.26 72.26 72.15 71.79
64.15 66.21 68.19 69.68 70.25 72.80 73.67 72.16 72.47 72.60 72.88 72.48 72.14 72.69 72.17 71.79 72.13 71.44 71.74 72.20 72.31 72.37
62.25 62.95 65.08 66.56 68.52 70.72 71.79 73.80 71.87 72.54 72.72 72.88 72.85 72.80 71.99 71.83 72.33 71.57 71.05 71.38 71.43 71.29
60.83 60.23 61.00 63.45 65.67 68.40 69.73 70.69 72.42 73.00 72.12 73.07 73.10 72.88 72.61 72.31 72.20 72.06 72.06 71.96 71.78 71.68
60.44 60.49 60.66 62.02 64.21 66.15 67.41 68.82 70.23 71.20 72.41 73.35 72.98 73.20 73.47 73.00 72.09 72.23 72.31 72.73 72.56 72.48
60.20 60.63 60.82 61.86 62.56 64.13 65.64 67.45 68.58 66.84 68.32 71.62 73.37 73.16 72.83 72.82 72.21 71.51 71.61 72.56 72.85 73.15
59.13 59.73 60.11 61.14 62.41 63.60 64.76 64.16 62.50 62.40 62.84 65.78 70.26 68.60 67.78 68.99 72.08 72.36 70.86 71.57 72.60 73.07
58.59 59.04 59.85 61.21 62.15 61.84 61.78 60.54 59.67 59.64 60.47 60.55 63.26 64.88 65.46 66.86 70.37 71.83 71.57 71.00 71.96 71.54
53.95 55.33 57.49 58.14 57.16 57.32 57.98 58.40 57.91 57.99 58.68 59.42 61.24 62.48 62.91 64.78 70.08 70.92 71.71 71.08 67.83 67.15
51.51 51.72 52.44 52.65 53.13 54.03 54.77 56.00 57.08 57.58 57.26 57.24 59.04 59.82 60.48 63.29 69.88 69.90 70.57 70.76 68.65 67.18
50.63 50.28 50.21 50.94 51.19 52.41 53.69 54.53 56.09 56.30 56.83 57.11 58.41 59.53 58.51 60.76 70.02 68.37 68.52 68.81 68.56 64.43
51.11 50.40 51.03 51.37 51.43 50.98 52.16 53.58 54.49 55.08 55.95 56.68 57.76 60.34 58.11 57.36 67.28 69.07 68.07 68.16 67.26 67.33
MSLP
1017.93 1018.08 1018.22 1018.16 1018.13 1017.79 1017.57 1017.29 1016.97 1016.92 1016.91 1017.01 1017.10 1017.22 1017.37 1017.75 1017.91 1018.09 1018.26 1018.41 1018.54 1018.50
1017.83 1017.88 1017.91 1017.84 1017.57 1017.21 1016.74 1016.48 1016.40 1016.13 1016.29 1016.20 1016.31 1016.42 1016.72 1016.98 1017.10 1017.24 1017.36 1017.48 1017.60 1017.75
1018.07 1018.02 1017.83 1017.43 1017.20 1016.43 1015.89 1015.70 1015.64 1015.54 1015.55 1015.57 1015.63 1015.75 1016.09 1016.18 1016.22 1016.55 1016.54 1016.58 1016.87 1016.98
1018.18 1018.01 1017.69 1017.32 1016.87 1016.25 1015.65 1015.48 1015.27 1015.25 1015.15 1014.99 1014.96 1015.04 1015.12 1015.28 1015.46 1015.65 1015.71 1015.82 1015.80 1015.84
1018.18 1017.96 1017.70 1017.24 1016.73 1016.17 1015.71 1015.21 1015.02 1014.72 1014.56 1014.36 1014.16 1014.09 1014.19 1014.29 1014.29 1014.49 1014.64 1014.67 1014.89 1014.79
1017.72 1017.52 1017.18 1016.75 1016.41 1015.95 1015.51 1015.07 1014.55 1014.14 1013.71 1013.37 1013.39 1013.38 1013.20 1013.16 1013.14 1013.09 1013.05 1013.28 1013.67 1013.82
1017.69 1017.22 1016.85 1016.39 1015.96 1015.60 1015.27 1014.99 1014.58 1014.03 1013.37 1012.96 1012.79 1012.61 1012.39 1012.24 1012.23 1012.17 1012.03 1012.15 1012.39 1012.71
1017.07 1016.84 1016.56 1016.22 1015.70 1015.22 1014.90 1014.50 1014.20 1013.89 1013.45 1012.90 1012.28 1011.88 1011.62 1011.54 1011.33 1011.31 1011.18 1010.98 1011.15 1011.41
1017.31 1016.72 1016.10 1015.55 1015.18 1014.84 1014.40 1014.02 1013.82 1013.44 1013.06 1012.37 1011.73 1011.22 1010.93 1010.85 1010.77 1010.43 1010.67 1010.69 1010.22 1010.01
1017.19 1016.45 1015.73 1015.10 1014.66 1014.25 1013.95 1013.71 1013.38 1012.88 1012.42 1011.85 1011.29 1010.76 1010.28 1009.92 1009.75 1009.74 1009.31 1009.54 1010.16 1009.62
1016.86 1016.14 1015.53 1015.00 1014.51 1014.03 1013.56 1013.04 1012.61 1012.14 1011.71 1011.18 1010.49 1010.05 1009.49 1008.97 1008.68 1008.57 1008.37 1008.05 1008.10 1008.66
1016.69 1015.86 1015.17 1014.47 1013.97 1013.46 1013.01 1012.27 1011.66 1011.08 1010.70 1010.36 1009.49 1009.08 1008.62 1008.09 1007.48 1007.18 1007.03 1006.67 1006.55 1006.77
1016.40 1015.61 1014.70 1014.07 1013.34 1012.76 1012.27 1011.38 1010.74 1009.92 1009.52 1008.96 1008.34 1007.87 1007.59 1007.41 1006.64 1006.19 1006.03 1005.89 1006.26 1006.29
1015.30 1014.52 1013.66 1012.78 1012.14 1011.70 1011.13 1010.52 1009.84 1008.99 1008.25 1007.71 1007.16 1006.46 1006.12 1006.04 1005.77 1005.20 1005.16 1005.08 1005.08 1005.56
Wind_Speed
8 6 6 8 8 8 7 8 7 8 8 9 9 9 7 7 7 6 7 8 6 5
4 4 4 6 8 9 11 10 9 10 10 10 10 10 10 8 10 9 9 9 9 8
4 5 5 6 10 12 13 12 11 11 11 11 11 11 9 9 9 10 9 8 9 9
5 5 5 6 9 10 10 10 10 10 11 12 12 12 11 12 11 10 12 10 11 12
5 5 5 6 7 7 8 8 8 10 11 13 13 13 13 14 13 13 13 13 12 13
6 5 6 6 6 7 8 8 9 9 13 15 15 14 13 15 15 15 15 14 13 14
9 9 9 8 7 6 6 7 8 11 12 12 15 14 15 15 14 16 14 15 14 14
12 10 9 9 10 8 7 7 7 9 11 14 12 10 13 13 15 14 15 15 14 14
14 11 10 8 8 7 9 8 9 9 11 13 10 12 16 15 13 14 13 14 14 14
13 14 13 11 8 9 8 8 11 12 11 13 14 15 15 19 13 12 7 9 7 1
13 13 13 12 12 12 11 12 11 12 13 13 13 17 16 20 14 13 16 15 9 7
14 14 14 15 14 13 13 13 13 13 14 15 15 18 17 16 13 14 17 17 13 15
14 15 15 16 16 15 14 15 13 15 15 18 18 18 15 15 11 12 11 14 13 19
17 18 16 17 17 16 16 15 15 16 15 17 19 18 19 20 15 12 12 13 12 10
Wind_Direction
223 222 224 230 238 249 247 248 232 231 227 234 232 230 221 232 238 224 225 225 223 236
293 274 276 270 257 254 252 249 236 226 231 232 235 231 225 228 237 229 230 233 227 226
334 314 290 288 285 270 262 252 244 231 228 232 230 230 227 234 233 231 234 227 226 229
321 311 300 295 316 309 282 262 257 246 243 235 230 229 223 228 234 222 236 229 221 231
293 296 284 281 293 302 320 297 264 253 247 246 238 232 225 230 228 221 228 233 226 232
287 275 279 283 289 303 315 313 311 269 260 255 251 246 235 231 231 224 223 228 226 231
276 287 296 292 285 285 290 294 298 302 298 278 256 248 252 242 233 233 229 228 225 228
296 276 265 278 290 291 286 283 289 296 294 291 269 257 257 257 250 237 236 230 226 224
299 292 281 264 261 268 284 293 291 288 290 291 284 274 253 253 253 238 246 250 238 230
306 300 299 297 294 292 277 281 283 284 283 284 283 279 265 251 244 236 212 256 276 232
298 296 297 294 294 292 286 277 274 276 273 273 277 267 266 263 244 228 216 199 182 177
300 295 292 287 284 281 281 275 266 266 270 269 269 263 260 251 249 225 223 219 213 212
289 283 282 282 281 277 272 270 267 265 264 263 268 256 240 224 234 223 225 237 224 223
285 281 272 275 274 271 268 269 265 263 265 266 262 259 240 221 231 232 232 236 236 223